www.pogodaiklimat.ru

Погода и климат >> Архив погоды >> Италия >> Roma


АРХИВ ПОГОДЫ в Roma

Время (UTC), дата Ветер
(напр.,м/с)
 
Видим.   Явления Облачность Т
(С)
Тd
(С)
f
(%)
Тe
(С)
Тes
(С)
Комфортность P
(гПа)
Po
(гПа)
Тmin
(С)
Tmax
(С)
R
(мм)
R24
(мм)
S
(см)
18 20.05 З 5 25 км 3/3 900 м
[Cu med, cong]
+19.3 +14.3 73 +21 +21 комфорт 1015.5 1015.0 +22.1 1
21 20.05 СЗ 2 25 км ясно +15.5 +9.6 68 +15 +15 по сезону 1016.3 1015.8
00 21.05 С 3 25 км ясно +13.0 +10.2 83 +12 +12 по сезону 1016.6 1016.2
03 21.05 СЗ 3 25 км 3/0
[Ci]
+13.9 +11.0 83 +13 +13 прохладно 1016.0 1015.5
06 21.05 СЗ 5 40 км 3/0
[Ac trans Ci]
+17.3 +11.4 68 +17 +18 по сезону 1016.0 1015.5 +12.8
09 21.05 С 8 40 км 3/0
[Ac trans]
+22.4 +10.6 47 +24 +27 комфорт 1016.3 1015.8
12 21.05 С 7 50 км 3/0
[Ac cuf]
+24.7 +10.1 40 +26 +30 жарко 1016.2 1015.8
15 21.05 С 5 50 км 3/1 1500 м
[Cu hum Ac cuf Ci fib]
+24.9 +9.7 38 +26 +29 жарко 1016.5 1016.0
18 21.05 СВ 4 50 км 1/0
[Ac lent Ci fib]
+22.8 +10.2 45 +25 +25 комфорт 1017.1 1016.3 +26.2
21 21.05 С 4 40 км ясно +18.8 +10.8 60 +19 +19 тепло 1017.8 1017.3
00 22.05 С 2 30 км 1/0
[Ac trans]
+16.0 +10.5 70 +16 +16 тепло 1018.2 1017.7
03 22.05 В 2 30 км ясно +14.0 +10.2 78 +13 +13 прохладно 1017.5 1017.0
06 22.05 СВ 3 50 км ясно +18.9 +10.9 60 +20 +23 тепло 1018.1 1017.6 +13.2
09 22.05 ЮЗ 3 50 км ясно +24.3 +13.3 50 +26 +39 жарко 1018.1 1017.7
12 22.05 ЮЗ 4 50 км 1/0
[Ci]
+24.4 +11.6 45 +26 +38 жарко 1018.0 1017.5
15 22.05 З 4 45 км 3/0
[Cs]
+23.2 +13.9 56 +27 +32 душно 1017.6 1017.2
18 22.05 З 3 45 км 8/0
[Cs]
+19.9 +15.7 77 +23 +23 комфорт 1017.4 1016.9 +25.2
21 22.05 СВ 2 30 км 5/0
[Ci]
+17.1 +14.7 86 +17 +17 по сезону 1017.6 1017.1
00 23.05 СВ 2 10 км дымка 3/0
[Ci]
+14.0 +13.0 94 +14 +14 по сезону 1017.1 1016.6
03 23.05 СВ 1 20 км 3/0
[Ci]
+13.3 +11.5 89 +13 +13 прохладно 1017.2 1016.7
06 23.05 В 1 35 км 1/0
[Ci fib]
+19.5 +13.0 66 +23 +27 комфорт 1018.3 1017.8 +11.9
09 23.05 З 3 35 км 4/0
[Ci]
+23.0 +12.9 53 +26 +39 жарко 1018.7 1018.2
12 23.05 ЮЗ 5 30 км 6/0
[Ci]
+23.6 +13.4 53 +26 +34 жарко 1018.3 1017.8
15 23.05 З 4 40 км 3/3 600 м
[Cb cap Ac cuf Ci ing]
+23.2 +14.7 59 +27 +31 душно 1017.5 1017.0
18 23.05 ЮЗ 4 40 км 4/4 600 м
[Cb cap Cs]
+20.8 +15.7 73 +24 +24 комфорт 1017.6 1017.2 +24.6
21 23.05 ЮЗ 1 40 км ясно +19.3 +15.5 79 +22 +22 комфорт 1019.1 1018.6
00 24.05 В 1 20 км ясно +16.4 +15.1 92 +17 +17 тепло 1018.4 1017.9
03 24.05 СВ 2 20 км 1/0
[Ci sp]
+13.7 +12.9 95 +13 +13 прохладно 1018.0 1017.6
06 24.05 С 2 20 км 1/0
[Cs]
+19.0 +15.0 78 +21 +25 комфорт 1018.6 1018.1 +13.4
09 24.05 З 3 20 км 6/0
[Cs]
+23.4 +14.9 59 +27 +38 душно 1018.6 1018.2
12 24.05 З 5 20 км 6/1 900 м
[Cu hum Cs]
+22.2 +14.5 62 +26 +34 душно 1018.1 1017.6
15 24.05 З 5 40 км 8/0
[Cs]
+23.3 +12.0 49 +26 +30 жарко 1016.6 1016.1
18 24.05 З 3 40 км 8/0
[Ac trans Cs]
+20.9 +15.0 69 +24 +24 комфорт 1016.8 1016.2 +24.8
21 24.05 З 1 30 км 1/0
[Cs]
+19.4 +18.0 92 +23 +23 комфорт 1017.1 1016.6
00 25.05 ЮЗ 2 20 км 4/0
[Ci fib]
+18.5 +16.8 90 +20 +20 тепло 1015.9 1015.4
03 25.05 В 2 10 км ясно +15.5 +14.6 94 +16 +16 по сезону 1014.5 1014.0
06 25.05 СВ 3 10 км {туман} 5/3 450 м
[Cu hum Ac As Cs]
+17.6 +16.8 95 +18 +19 по сезону 1015.7 1015.2 +14.9
09 25.05 С 1 25 км 8/3 1500 м
[Cu hum Ac lent Cs]
+22.5 +15.8 66 +27 +35 душно 1015.7 1015.2
15 25.05 ЮЗ 5 30 км 4/4 360 м
[Cu med, cong Ac cuf Ci fib]
+22.2 +17.3 74 +27 +30 душно 1014.6 1014.2
18 25.05 ЮЗ 3 25 км 1/1 600 м
[Cu med, cong Ac lent]
+21.0 +16.1 74 +25 +25 комфорт 1014.6 1014.2 +25.5
21 25.05 ЮВ 1 22 км 1/1 300 м
[Cu hum]
+18.2 +16.7 91 +20 +20 тепло 1015.9 1015.5
00 26.05 С 2 8000 м 1/1 360 м
[Cu hum]
+14.2 +13.7 97 +14 +14 по сезону 1016.0 1015.6
03 26.05 СВ 3 50 км ясно +13.9 +8.8 71 +13 +13 прохладно 1016.5 1016.0
06 26.05 СВ 4 60 км 1/0
[Ac trans]
+18.8 +7.5 48 +19 +22 тепло 1017.1 1016.6 +13.1
09 26.05 СВ 6 60 км ясно +24.5 +5.7 30 +24 +30 комфорт 1016.9 1016.5
12 26.05 З 6 60 км 1/1 900 м
[Cu hum]
+24.5 +13.2 49 +27 +33 жарко 1016.1 1015.7
15 26.05 З 7 70 км 1/1 1200 м
[Cu hum]
+23.0 +14.5 59 +27 +29 душно 1015.4 1014.9
18 26.05 З 6 65 км ясно +21.1 +15.9 72 +24 +24 комфорт 1014.9 1014.4 +26.5
21 26.05 С 2 40 км ясно +19.6 +9.5 52 +21 +21 комфорт 1016.4 1015.9
00 27.05 СВ 1 35 км ясно +14.2 +9.4 73 +15 +15 по сезону 1017.2 1016.8
03 27.05 СВ 1 35 км ясно +13.0 +9.7 80 +13 +13 прохладно 1017.7 1017.2
06 27.05 СВ 4 35 км ясно +19.6 +9.2 51 +21 +23 комфорт 1018.8 1018.3 +11.6
09 27.05 С 2 35 км ясно +24.8 +7.2 32 +25 +41 комфорт 1019.2 1018.7
12 27.05 ЮЗ 6 35 км 1/1 900 м
[Cu hum]
+24.6 +11.2 43 +26 +32 жарко 1018.6 1018.1

 

Местоположение метеостанции Roma (Италия): широта 41.80 долгота 12.23 высота над уровнем моря 3 м.

В архиве по умолчанию представлена погода в Roma за последнюю неделю. Архивные данные за месяц целиком и за предыдущие месяцы, начиная с января 2011 года, Вы можете получить, выбрав интересующий диапазон дат из раскрывающегося списка и нажав кнопку "Ввод!".

Внимание! Время в таблицах - всемирное. Для получения местного времени необходимо прибавить поправку, которая в Roma равна 1 ч.

Смотрите также архив погоды в соседних городах и на ближайших метеорологических станциях:

Погода в Pratica di Mare (Италия) (25 км)
Погода в Vigna di Valle (Италия) (31 км)
Погода в Civitavecchia (Италия) (42 км)
Погода в Guidonia (Италия) (47 км)
Погода в Latina (Италия) (62 км)
Погода в Latina (Италия) (62 км)
Погода в Viterbo (Италия) (72 км)
Погода в Frosinone (Италия) (91 км)
Погода в Torre Olevola (Италия) (96 км)
Погода в Monte Terminillo (Италия) (97 км)

Пояснения к столбцам:

Ветер - указаны скорость ветра в м/с - средняя за 10 мин, порывы в срок и между сроками (в фигурных скобках) и направление, откуда дует ветер: С - северный, СВ - северо-восточный, В - восточный, ЮВ - юго-восточный, Ю - южный, ЮЗ - юго-западный, З - западный, СЗ - северо-западный.
Видимость - горизонтальная дальность видимости в метрах или километрах. При видимости от 1 до 10 км при отсутствии осадков обычно наблюдается дымка, при ухудшении видимости до 1 км и менее - туман. В сухую погоду видимость может ухудшаться дымом, пылью или мглою.
Явления - указаны атмосферные явления, наблюдавшиеся в срок или в последний час перед сроком; фигурными скобками обозначены явления, наблюдавшиеся между сроками (за 1-3 часа до срока); квадратными скобками обозначены град или гололедные отложения с указанием их диаметра в мм.
Облачность - указаны через наклонную черту общая и нижняя облачность в баллах и высота нижней границы облаков в метрах; квадратными скобками обозначены формы облаков: Ci - перистые, Cs - перисто-слоистые, Cc - перисто-кучевые, Ac - высококучевые, As - высокослоистые, Sc - слоисто-кучевые, Ns - слоисто-дождевые, Cu - кучевые, Cb - кучево-дождевые. Подробнее классификацию облаков см. в Атласе облаков (PDF).
T - Температура воздуха - температура, измеренная на высоте 2 м над землей.
Td - Температура точки росы - температура, при понижении до которой содержащийся в воздухе водяной пар достигнет насыщения.
f - Относительная влажность воздуха - влажноcть воздуха, измеренная на высоте 2 м над землей.
Te - Эффективная температура - температура, которую ощущает одетый по сезону человек в тени. Характеристика душности погоды. При расчете учитывается влияние влажности воздуха и скорости ветра на теплоощущения человека.
Tes - Эффективная температура на солнце - температура, которую ощущает человек, с поправкой на солнечный нагрев. Характеристика знойности погоды. Зависит от высоты солнца над горизонтом, облачности и скорости ветра. Ночью, в пасмурную погоду, а также при ветре 12 м/с и более поправка равна нулю.
P - Атмосферное давление - приведенное к уровню моря атмосферное давление.
Po - Атмосферное давление - измеренное на уровне метеостанции атмосферное давление.
Tmin - Минимальная температура - минимум температуры воздуха на высоте 2 м над землей.
Tmax - Максимальная температура - максимум температуры воздуха на высоте 2 м над землей.
R - Количество осадков - Количество выпавших осадков за период времени, мм. При наведении курсора мыши на число - период времени, за который выпало указанное количество осадков.
R24 - Количество осадков - Количество выпавших осадков за 24 часа, мм.
S - Снежный покров - Высота снежного покрова, см. При наведении курсора мыши на число - состояние снежного покрова и степень покрытия местности в баллах.